Change the Weather History Date:

Wednesday, January 23, 2013

  Actual Average Record
Temperature  
Mean Temperature 80 °F -  
Max Temperature 87 °F 91 °F 98 °F (1998)
Min Temperature 74 °F 75 °F 66 °F (2014)
Cooling Degree Days 16    
Growing Degree Days 30 (Base 50)    
Moisture  
Dew Point 73 °F    
Average Humidity 76    
Maximum Humidity 90    
Minimum Humidity 58    
Precipitation  
Precipitation 0.00 in 0.04 in - ()
Sea Level Pressure  
Sea Level Pressure 29.90 in    
Wind  
Wind Speed 3 mph ()    
Max Wind Speed 14 mph    
Max Gust Speed -    
Visibility 5.2 miles    
Events      
Averages and records for this station are not official NWS values.
T = Trace of Precipitation, MM = Missing Value Source: Averaged Metar Reports

Daily Weather History Graph

Daily Weather History Graph

Search for Another Location

Airport or City:

Trip Planner

Search our weather history database for the weather conditions in past years. The results will help you decide how hot, cold, wet, or windy it might be!

Date:

Astronomy

Jan. 23, 2013 Rise Set
Actual Time 6:46 AM ICT 6:30 PM ICT
Civil Twilight 6:24 AM ICT 6:52 PM ICT
Nautical Twilight 5:58 AM ICT 7:18 PM ICT
Astronomical Twilight 5:33 AM ICT 7:43 PM ICT
Moon 3:23 PM ICT (1/23) 3:24 AM ICT (1/23)
Length of Visible Light 12h 28m
Length of Day
11h 44m
Waxing Gibbous, 86% of the Moon is Illuminated
Jan 23
Waxing Gibbous
Jan 27
Full
Feb 3
Last Quarter
Feb 10
New
Feb 18
First Quarter

Hourly Weather History & Observations

Time (ICT) Temp. Heat Index Dew Point Humidity Pressure Visibility Wind Dir Wind Speed Gust Speed Precip Events Conditions
12:00 AM 78.8 °F - 69.8 °F 74% 29.89 in 5.0 mi NE 3.5 mph - N/A   Scattered Clouds
12:30 AM 78.8 °F - 71.6 °F 78% 29.89 in 5.0 mi Variable 2.3 mph - N/A   Scattered Clouds
1:00 AM 80 °F - 73 °F 73% 29.87 in 6 mi Calm Calm - -   Scattered Clouds
1:00 AM 77.0 °F - 71.6 °F 83% 29.92 in 5.0 mi Variable 2.3 mph - N/A   Scattered Clouds
1:30 AM 75.2 °F - 71.6 °F 89% 29.92 in 5.0 mi Calm Calm - N/A   Scattered Clouds
2:00 AM 78.8 °F - 71.6 °F 78% 29.89 in 5.0 mi Variable 2.3 mph - N/A   Scattered Clouds
2:30 AM 77.0 °F - 71.6 °F 83% 29.89 in 5.0 mi NE 3.5 mph - N/A   Scattered Clouds
3:00 AM 75.2 °F - 71.6 °F 89% 29.89 in 5.0 mi Calm Calm - N/A   Scattered Clouds
3:30 AM 75.2 °F - 71.6 °F 89% 29.89 in 5.0 mi Variable 1.2 mph - N/A   Scattered Clouds
4:00 AM 77.0 °F - 71.6 °F 83% 29.86 in 5.0 mi ENE 3.5 mph - N/A   Scattered Clouds
4:30 AM 78.8 °F - 71.6 °F 78% 29.86 in 5.0 mi ENE 6.9 mph - N/A   Scattered Clouds
5:00 AM 78.8 °F - 71.6 °F 78% 29.89 in 5.0 mi NE 4.6 mph - N/A   Scattered Clouds
5:30 AM 77.0 °F - 71.6 °F 83% 29.89 in 5.0 mi ENE 3.5 mph - N/A   Scattered Clouds
6:00 AM 77.0 °F - 71.6 °F 83% 29.89 in 5.0 mi NNE 3.5 mph - N/A   Scattered Clouds
6:30 AM 77.0 °F - 71.6 °F 83% 29.89 in 5.0 mi NE 3.5 mph - N/A   Scattered Clouds
7:00 AM 76 °F - 74 °F 90% 29.87 in 6 mi NE 3.5 mph - -   Scattered Clouds
7:00 AM 77.0 °F - 71.6 °F 83% 29.92 in 5.6 mi Variable 1.2 mph - N/A   Scattered Clouds
7:30 AM 77.0 °F - 73.4 °F 89% 29.92 in 5.6 mi Calm Calm - N/A   Scattered Clouds
8:00 AM 78.8 °F - 73.4 °F 83% 29.92 in 5.6 mi Calm Calm - N/A   Scattered Clouds
8:30 AM 80.6 °F 85.4 °F 73.4 °F 79% 29.95 in 5.6 mi ENE 9.2 mph - N/A   Mostly Cloudy
9:00 AM 80.6 °F 85.4 °F 73.4 °F 79% 29.95 in 5.6 mi ENE 5.8 mph - N/A   Mostly Cloudy
9:30 AM 82.4 °F 88.2 °F 73.4 °F 74% 29.95 in 5.0 mi ENE 9.2 mph - N/A   Mostly Cloudy
10:00 AM 82.4 °F 87.2 °F 71.6 °F 70% 29.95 in 5.0 mi East 10.4 mph - N/A   Mostly Cloudy
10:30 AM 84.2 °F 89.6 °F 71.6 °F 66% 29.95 in 5.6 mi ESE 11.5 mph - N/A   Mostly Cloudy
11:00 AM 86.0 °F 91.8 °F 71.6 °F 62% 29.95 in 5.6 mi East 12.7 mph - N/A   Mostly Cloudy
11:30 AM 87.8 °F 93.8 °F 71.6 °F 58% 29.92 in 5.6 mi ESE 9.2 mph - N/A   Mostly Cloudy
12:00 PM 87.8 °F 93.8 °F 71.6 °F 58% 29.92 in 5.6 mi East 11.5 mph - N/A   Mostly Cloudy
12:30 PM 87.8 °F 93.8 °F 71.6 °F 58% 29.92 in 5.6 mi ENE 13.8 mph - N/A   Mostly Cloudy
1:00 PM 87 °F - 75 °F 59% 29.87 in 6 mi East 4.6 mph - -   Mist
1:00 PM 86.0 °F 91.8 °F 71.6 °F 62% 29.92 in 5.6 mi East 6.9 mph - N/A   Mostly Cloudy
1:30 PM 87.8 °F 95.6 °F 73.4 °F 62% 29.89 in 5.6 mi East 5.8 mph - N/A   Mostly Cloudy
2:00 PM 86.0 °F 91.8 °F 71.6 °F 62% 29.86 in 5.6 mi East 12.7 mph - N/A   Mostly Cloudy
2:30 PM 86.0 °F 91.8 °F 71.6 °F 62% 29.86 in 5.6 mi East 4.6 mph - N/A   Mostly Cloudy
3:30 PM 86.0 °F 93.4 °F 73.4 °F 66% 29.83 in 5.0 mi ESE 4.6 mph - N/A   Mostly Cloudy
4:00 PM 86.0 °F 93.4 °F 73.4 °F 66% 29.83 in 5.0 mi Variable 3.5 mph - N/A   Mostly Cloudy
4:30 PM 84.2 °F 90.9 °F 73.4 °F 70% 29.83 in 5.0 mi Variable 2.3 mph - N/A   Mostly Cloudy
5:00 PM 84.2 °F 90.9 °F 73.4 °F 70% 29.83 in 5.0 mi Variable 2.3 mph - N/A   Mostly Cloudy
5:30 PM 84.2 °F 90.9 °F 73.4 °F 70% 29.83 in 5.0 mi NNE 5.8 mph - N/A   Mostly Cloudy
6:00 PM 84.2 °F 90.9 °F 73.4 °F 70% 29.83 in 5.0 mi NNE 4.6 mph - N/A   Mostly Cloudy
6:30 PM 82.4 °F 88.2 °F 73.4 °F 74% 29.86 in 5.0 mi NNW 4.6 mph - N/A   Mostly Cloudy
7:00 PM 84 °F - 76 °F 70% 29.82 in 5 mi Calm Calm - -   Scattered Clouds
7:00 PM 80.6 °F 86.2 °F 75.2 °F 84% 29.86 in 5.0 mi Calm Calm - N/A   Mostly Cloudy
7:30 PM 82.4 °F 88.2 °F 73.4 °F 74% 29.86 in 5.0 mi NNW 3.5 mph - N/A   Mostly Cloudy
8:00 PM 80.6 °F 86.2 °F 75.2 °F 84% 29.89 in 5.0 mi Calm Calm - N/A   Mostly Cloudy
8:30 PM 80.6 °F 86.2 °F 75.2 °F 84% 29.92 in 5.6 mi Calm Calm - N/A   Mostly Cloudy
9:00 PM 78.8 °F - 75.2 °F 89% 29.92 in 5.6 mi Calm Calm - N/A   Mostly Cloudy
9:30 PM 78.8 °F - 75.2 °F 89% 29.95 in 5.0 mi NW 3.5 mph - N/A   Mostly Cloudy
10:00 PM 78.8 °F - 75.2 °F 89% 29.95 in 5.0 mi Calm Calm - N/A   Mostly Cloudy
10:30 PM 78.8 °F - 75.2 °F 89% 29.95 in 5.0 mi Calm Calm - N/A   Mostly Cloudy
11:00 PM 78.8 °F - 75.2 °F 89% 29.95 in 5.0 mi Calm Calm - N/A   Mostly Cloudy
11:30 PM 78.8 °F - 75.2 °F 89% 29.95 in 5.0 mi Calm Calm - N/A   Mostly Cloudy